SCP
0 0 0 0 1 1 1 1 1 1 0 0 0 0 0 0 0 0 0 0 0 0 0 0 0 0 1 1 1 1 2 2 1 1 1 0 0 0 0 0 0 0 0
0 0 0 0 0 1 1 1 1 1 1 0 0 0 0 0 0 0 0 0 0 0 0 0 0 0 0 1 1 1 1 1 1 1 0 0 0 0 0 0 0 0 0
0 -0 0 0 0 0 0 0 1 1 1 1 0 0 0 0 0 0 0 0 0 0 0 0 0 0 0 0 0 0 0 1 0 0 0 0 0 0 0 0 0 0 0
-0 -0 -0 -0 0 0 0 0 0 1 1 1 1 0 0 0 0 0 0 0 0 0 0 0 0 0 0 0 0 0 0 0 0 0 0 0 0 0 0 0 0 0 0
-0 -0 -0 -0 0 0 0 0 0 1 1 1 1 1 0 0 0 0 0 0 0 0 0 0 0 0 0 0 0 0 0 0 0 0 0 0 0 0 0 0 0 0 0
0 0 -0 -0 0 0 0 0 0 1 1 1 1 1 0 0 0 0 0 0 0 0 0 0 0 0 0 0 0 0 0 0 0 0 0 0 0 0 0 0 0 0 0
0 0 0 0 0 0 0 0 0 0 1 1 1 1 0 0 0 0 0 0 0 0 0 0 0 0 0 0 0 0 0 0 0 0 0 0 0 0 0 0 0 0 0
0 0 0 0 0 0 0 0 0 0 0 0 0 0 0 0 0 0 0 0 0 0 0 0 0 0 0 0 0 0 0 0 0 0 0 0 0 0 0 0 0 0 0
0 0 0 0 0 0 0 0 0 0 0 0 0 0 0 0 0 0 0 0 0 0 0 0 0 0 0 0 0 0 0 0 0 0 0 0 0 0 0 0 0 0 0
0 0 0 0 0 0 0 0 0 0 0 0 0 0 0 0 0 0 0 0 0 0 0 0 0 0 0 0 0 0 0 0 0 0 0 0 0 0 0 0 0 0 0
0 0 0 0 0 0 0 0 0 0 0 0 0 0 0 0 0 0 0 0 0 0 0 0 0 0 0 0 0 0 0 0 0 0 0 0 0 0 0 0 0 0 0
0 0 0 0 0 0 0 0 0 0 0 0 0 0 0 0 0 0 0 0 0 0 0 0 0 0 0 0 0 0 0 0 0 0 0 0 0 0 0 0 0 0 0
0 0 0 0 0 0 0 0 0 0 0 0 0 0 -0 -0 0 0 0 0 0 0 0 0 0 0 0 0 0 0 0 0 0 0 0 0 0 0 0 0 0 0 0
0 0 0 0 0 0 0 0 0 -0 -0 0 0 -0 -0 -0 0 0 0 0 0 0 0 0 0 0 0 0 0 0 0 0 0 0 0 0 0 0 0 0 0 -0 0
0 0 0 0 0 0 0 0 0 0 -0 -0 -0 -0 -0 -0 -0 0 0 0 0 0 0 0 0 0 0 0 0 0 0 0 0 0 0 0 0 0 0 0 0 -0 -0
0 0 0 0 0 0 0 0 0 0 0 0 -0 -0 -0 -0 -0 0 0 0 0 -0 -0 -0 -0 0 0 0 0 0 0 0 0 0 0 0 0 0 0 0 0 0 0
0 0 0 0 0 0 0 0 0 0 0 0 0 0 0 0 0 -0 0 0 -0 -0 -0 -0 -0 -0 0 0 0 0 0 0 0 -0 0 0 0 0 0 0 0 0 0
0 0 0 0 0 0 0 0 0 0 0 0 0 0 0 0 0 -0 0 0 -0 -0 -0 -0 -0 -0 -0 -0 0 0 0 0 0 -0 -0 -0 -0 -0 -0 0 0 0 0
0 0 0 0 0 0 0 0 0 0 0 0 0 0 0 0 0 -0 0 0 0 0 0 0 0 -0 -0 -0 0 0 0 0 -0 -0 -0 -0 -0 -0 -0 0 0 0 0
0 0 0 0 0 0 0 0 0 0 0 0 0 0 0 0 0 0 0 0 0 0 0 0 0 -0 -0 -0 0 0 0 0 -0 0 0 0 -0 0 0 0 0 0 0
0 0 0 0 0 0 0 0 0 0 0 0 0 0 0 0 0 0 0 0 0 0 0 0 0 0 -0 -0 0 0 0 0 0 0 0 0 0 0 0 0 0 0 0
0 0 0 0 0 0 0 0 0 0 0 0 0 0 0 0 0 0 0 0 0 0 0 0 0 0 0 0 0 0 0 0 0 0 0 0 0 0 0 0 0 0 0
0 0 0 0 0 0 0 0 0 0 0 0 0 0 0 0 0 0 0 0 0 0 0 0 0 0 0 0 0 -0 0 0 0 0 0 0 0 0 0 0 0 0 0
0 0 0 0 0 0 -0 0 0 0 0 0 0 0 0 0 0 0 0 0 0 0 0 0 0 0 0 0 -0 -0 -0 0 0 0 0 0 0 0 0 0 0 0 0
0 0 0 0 0 0 0 0 0 0 0 0 0 0 0 0 0 0 0 0 0 0 0 0 0 0 0 0 0 -0 -0 0 0 0 0 0 0 0 0 0 0 0 0
0 0 0 0 0 0 0 0 0 0 0 0 0 0 0 0 0 0 0 0 0 0 0 0 0 0 0 0 0 0 -0 0 0 0 0 0 0 0 0 0 0 0 0
Wind_Speed
15 14 14 13 13 11 10 11 11 9 8 8 9 9 11 12 11 10 11 10 9 7 9 8 6 6 7 8 8 7 7 7 6 3 5 9 9 9 8 5 7 9 9
13 12 12 12 14 13 12 12 12 11 11 10 10 9 10 10 9 10 9 7 6 5 5 4 3 4 5 5 6 8 7 8 7 8 8 8 9 9 8 7 6 10 9
13 13 10 10 13 14 13 13 13 13 13 13 11 10 10 9 9 9 7 7 4 5 5 3 3 5 4 5 6 4 3 6 8 8 9 11 10 11 10 10 10 10 10
6 11 11 8 11 14 15 12 13 13 14 15 13 10 9 9 9 9 7 7 5 5 5 5 4 4 3 7 8 8 7 8 8 6 5 8 11 13 12 11 10 9 9
9 10 11 10 8 12 15 14 13 11 12 15 14 11 10 9 7 6 7 7 5 2 3 4 4 5 6 8 8 9 8 7 6 5 3 5 9 11 11 10 10 9 7
15 15 14 12 12 13 13 13 14 11 9 12 15 13 11 8 7 3 6 6 3 2 3 0 4 8 8 9 10 10 8 8 7 5 5 4 7 7 7 8 9 9 8
12 14 12 8 12 13 12 12 14 13 10 10 14 14 12 10 11 9 7 5 4 2 4 1 4 7 8 10 10 10 11 11 7 6 7 7 7 7 6 7 6 5 7
17 17 18 15 16 16 13 11 13 12 10 9 11 14 14 12 14 12 8 9 7 5 4 4 6 6 7 8 8 9 10 8 6 6 6 6 7 7 5 6 6 6 7
18 18 19 19 16 17 15 13 13 12 12 10 8 10 12 12 15 15 11 11 9 8 6 6 5 7 3 3 7 10 10 9 10 14 13 12 12 9 4 3 7 7 7
20 18 17 18 16 16 14 12 12 12 13 13 9 6 8 11 15 17 14 12 9 9 8 6 5 7 4 1 5 8 10 10 10 10 11 10 9 6 2 2 4 5 6
19 17 17 18 16 15 13 12 12 13 13 13 13 8 2 6 8 16 16 12 9 9 9 8 7 7 6 2 3 7 8 9 10 9 9 7 7 7 6 5 6 4 3
17 15 17 19 17 14 13 12 12 13 14 13 12 10 5 2 6 9 15 14 7 8 9 8 9 9 8 6 5 8 7 7 7 6 6 6 6 7 8 8 9 10 10
15 14 16 19 18 15 14 13 12 13 12 13 9 8 5 4 1 7 12 12 7 5 7 13 13 12 12 9 8 7 5 4 5 5 6 6 7 8 8 8 9 9 9
16 18 13 13 16 13 13 12 12 13 11 10 6 7 6 5 4 6 6 8 8 9 14 14 12 9 10 10 7 5 4 4 4 6 6 7 8 8 7 7 8 8 9
16 14 12 10 12 13 13 11 12 11 7 6 5 7 5 6 6 6 9 12 10 12 14 12 11 11 10 10 8 7 5 5 6 7 7 7 7 7 6 5 5 5 6
13 12 11 10 9 9 10 12 15 12 4 7 11 10 8 6 9 7 6 8 18 14 11 12 11 11 10 9 9 8 9 8 8 7 7 7 7 8 7 5 5 5 5
12 11 9 9 8 8 10 11 11 9 6 6 9 12 13 8 9 9 8 6 14 17 11 12 11 11 10 9 9 9 9 9 8 7 7 7 7 7 6 6 5 5 5
12 11 9 7 9 11 12 11 11 9 9 7 6 6 10 13 12 13 13 11 6 12 13 13 11 11 10 10 9 9 9 9 8 7 7 7 7 7 6 6 6 5 5
8 6 5 5 8 8 9 11 9 8 7 7 9 6 8 12 15 15 13 10 12 13 11 12 11 11 10 10 9 9 9 9 9 8 8 7 7 7 6 6 6 5 2
5 6 6 6 7 9 11 10 7 6 7 8 10 12 13 11 9 9 9 12 13 12 10 11 11 11 10 10 9 9 10 10 9 8 8 7 6 6 6 7 7 7 5
4 5 7 6 7 10 9 7 6 7 7 7 6 7 13 14 11 13 14 14 13 11 10 10 11 11 11 10 10 10 11 10 10 8 8 8 7 5 6 6 6 5 5
1 1 1 5 6 5 4 4 4 5 5 5 4 9 15 12 14 15 15 14 11 9 9 10 10 10 11 11 11 11 11 11 11 9 8 8 7 6 6 6 6 6 5
0 2 2 2 2 3 4 5 6 3 0 3 4 6 10 13 15 16 15 13 11 10 10 11 11 11 11 11 11 11 11 11 11 10 9 8 7 7 6 6 6 6 6
2 1 3 4 3 4 5 5 5 4 8 10 10 12 14 14 15 15 14 11 9 11 11 11 11 12 14 12 10 10 10 10 11 11 11 9 8 8 7 7 7 7 7
3 2 2 3 5 6 6 6 6 7 6 9 13 14 12 11 12 14 12 13 12 11 11 11 10 12 14 14 13 12 10 8 6 8 11 10 10 10 9 9 8 8 9
3 3 2 2 3 3 4 4 2 3 5 11 11 11 9 9 10 12 11 13 9 8 9 9 12 13 14 13 11 8 8 9 6 4 8 10 11 11 10 10 11 10 10
Wind_Direction
352 346 345 335 319 290 264 254 250 247 245 250 262 278 287 292 301 298 289 290 292 305 304 295 290 286 266 257 250 238 220 212 184 113 128 117 106 98 96 109 90 71 60
335 329 331 326 315 309 300 286 267 253 248 246 251 262 276 286 293 289 293 295 291 312 336 4 0 322 300 298 272 247 227 203 158 136 134 123 122 118 125 127 108 90 84
323 313 317 324 316 314 315 310 292 268 254 249 247 253 265 276 280 280 285 272 275 294 302 328 342 324 49 55 38 40 103 123 122 130 136 146 144 139 138 125 117 107 102
288 299 295 296 309 307 300 303 298 280 260 249 245 247 250 255 266 268 282 280 265 283 318 340 330 344 40 88 82 66 75 96 109 110 125 145 148 157 144 136 127 115 114
221 235 261 271 272 278 291 302 298 293 274 255 242 234 232 236 239 247 258 260 248 252 33 13 13 26 63 92 106 100 90 94 110 118 135 171 163 163 142 133 122 120 120
237 235 227 233 255 268 272 276 283 289 291 271 244 228 219 221 151 184 258 242 235 137 93 289 119 113 103 97 97 98 113 131 147 152 178 148 116 114 121 136 138 146 132
279 281 280 264 271 272 278 291 294 297 301 292 259 230 216 208 164 178 229 229 219 165 111 36 96 111 134 123 110 95 75 53 62 87 103 119 124 115 134 144 151 146 112
287 288 293 289 284 281 280 280 283 289 294 286 269 239 220 205 174 179 203 229 216 218 152 128 110 128 128 136 133 118 97 69 56 90 94 97 96 101 100 105 112 109 114
275 283 289 286 283 278 271 271 279 289 288 275 258 258 230 205 175 177 195 224 213 202 179 141 140 129 80 137 142 122 105 87 62 72 79 74 67 53 47 143 163 174 147
285 287 283 276 275 274 271 271 270 274 279 281 263 248 252 222 183 181 197 223 196 195 176 137 73 111 119 319 149 135 122 119 116 106 100 97 94 88 68 288 211 189 146
287 287 290 279 273 263 257 259 263 268 273 281 279 253 201 292 229 190 197 228 194 200 180 166 132 119 114 96 162 138 124 124 125 127 128 125 129 128 113 59 16 33 93
289 290 290 280 272 263 256 258 258 262 265 268 270 256 204 162 317 250 199 222 235 208 184 152 126 128 113 102 108 109 127 151 149 142 136 132 128 114 97 76 58 52 54
274 281 283 277 268 265 262 259 254 247 248 260 263 254 216 160 348 278 212 205 214 211 138 115 123 125 116 106 116 138 166 173 155 152 146 137 114 103 111 107 96 94 88
277 281 276 271 276 265 258 252 252 253 241 249 261 239 193 151 185 241 195 193 161 124 117 123 130 126 111 117 142 168 179 164 159 141 127 121 128 147 149 140 147 150 131
270 275 267 249 261 271 261 257 262 257 248 264 243 232 179 169 209 219 193 177 165 151 144 144 149 144 146 158 167 165 148 152 146 136 139 150 156 148 138 140 146 142 128
267 267 266 259 241 247 268 263 242 244 208 226 230 210 177 168 128 140 196 165 146 156 160 157 156 155 157 163 159 156 156 157 147 148 155 157 151 146 142 146 147 132 126
266 255 246 240 242 245 254 260 246 197 171 205 217 197 168 160 132 141 133 95 153 166 177 161 160 159 159 162 159 157 154 146 150 152 147 144 140 139 156 154 149 142 135
281 256 235 227 241 240 233 233 229 208 182 184 197 185 158 149 148 139 120 108 167 196 180 163 164 163 163 164 162 157 148 149 161 152 144 145 146 157 164 159 157 154 140
279 246 222 236 238 237 241 223 202 207 196 175 158 177 162 138 127 131 141 163 181 209 191 162 164 166 165 164 160 151 152 162 160 158 155 156 157 157 153 146 117 82 126
291 245 238 253 237 227 222 201 178 195 194 194 178 169 162 153 149 149 169 192 191 207 196 167 166 167 165 164 159 156 158 159 164 169 163 163 170 163 145 145 145 155 169
269 263 232 227 223 221 204 176 169 194 199 186 171 154 164 170 178 181 183 190 192 193 201 175 167 169 168 170 168 170 168 167 175 179 168 168 170 166 151 149 152 155 144
240 312 217 215 194 183 160 146 173 179 172 169 160 158 169 186 184 179 180 181 185 202 197 179 171 173 176 178 176 179 179 178 182 186 180 174 175 179 169 167 165 165 164
259 170 207 220 177 161 163 155 125 114 163 237 202 167 178 195 175 171 172 169 181 212 193 178 178 174 179 179 182 187 190 186 185 189 194 189 186 190 191 189 188 187 196
82 123 179 181 178 193 185 140 121 211 236 226 197 181 189 182 162 165 164 167 203 210 179 177 183 176 176 179 184 191 197 195 189 191 202 205 198 193 208 209 212 219 225
138 149 157 154 167 180 162 153 183 224 230 154 147 160 170 164 163 164 166 162 197 200 176 177 180 176 177 188 195 197 181 170 201 201 197 213 216 208 212 226 232 237 242
98 113 134 154 153 145 130 136 207 256 149 135 148 161 172 182 170 165 169 149 163 181 181 182 185 184 179 191 200 180 148 153 178 226 228 214 220 224 227 234 242 248 252